Palma de Mallorca, Spain

2:02 PM CEST on May 28, 2017 (GMT +0200)
Palma De Mallorca

Weather History for LEPA - October, 2013

Change the Weather History Date:

Wednesday, October 9, 2013

  Actual Average Record
Temperature  
Mean Temperature 66 °F -  
Max Temperature 75 °F 70 °F 84 °F (2004)
Min Temperature 57 °F 52 °F 46 °F (1996)
Cooling Degree Days 1    
Growing Degree Days 16 (Base 50)    
Moisture  
Dew Point 58 °F    
Average Humidity 75    
Maximum Humidity 94    
Minimum Humidity 48    
Precipitation  
Precipitation 0.00 in 0.08 in - ()
Sea Level Pressure  
Sea Level Pressure 30.13 in    
Wind  
Wind Speed 4 mph ()    
Max Wind Speed 12 mph    
Max Gust Speed -    
Visibility 6.8 miles    
Events      
Averages and records for this station are not official NWS values.
T = Trace of Precipitation, MM = Missing Value Source: Averaged Metar Reports

Daily Weather History Graph

Daily Weather History Graph

Search for Another Location

Airport or City:

Trip Planner

Search our weather history database for the weather conditions in past years. The results will help you decide how hot, cold, wet, or windy it might be!

Date:

Astronomy

Oct. 09, 2013 Rise Set
Actual Time 7:53 AM CEST 7:18 PM CEST
Civil Twilight 7:26 AM CEST 7:45 PM CEST
Nautical Twilight 6:54 AM CEST 8:16 PM CEST
Astronomical Twilight 6:23 AM CEST 8:48 PM CEST
Moon 12:32 PM CEST (10/9) 10:39 PM CEST (10/9)
Length of Visible Light 12h 19m
Length of Day
11h 25m
Waxing Crescent, 22% of the Moon is Illuminated
Oct 9
Waxing Crescent
Oct 12
First Quarter
Oct 19
Full
Oct 27
Last Quarter
Nov 3
New

Hourly Weather History & Observations

Time (CEST) Temp. Dew Point Humidity Pressure Visibility Wind Dir Wind Speed Gust Speed Precip Events Conditions
12:00 AM 64.4 °F 59.0 °F 83% 30.18 in 6.2 mi ENE 3.5 mph - N/A   Partly Cloudy
12:30 AM 64.4 °F 59.0 °F 83% 30.18 in 6.2 mi ENE 3.5 mph - N/A   Partly Cloudy
1:00 AM 62.6 °F 59.0 °F 88% 30.18 in 6.2 mi ENE 3.5 mph - N/A   Partly Cloudy
1:30 AM 62.6 °F 57.2 °F 82% 30.18 in 6.2 mi Variable 2.3 mph - N/A   Partly Cloudy
2:00 AM 62.6 °F 59.0 °F 88% 30.18 in 6.2 mi NNE 3.5 mph - N/A   Partly Cloudy
2:30 AM 62.6 °F 59.0 °F 88% 30.18 in 6.2 mi Variable 2.3 mph - N/A   Partly Cloudy
3:00 AM 60.8 °F 59.0 °F 94% 30.18 in 6.2 mi North 3.5 mph - N/A   Partly Cloudy
3:30 AM 62.6 °F 57.2 °F 82% 30.18 in 6.2 mi NE 2.3 mph - N/A   Partly Cloudy
4:00 AM 60.8 °F 57.2 °F 88% 30.15 in 6.2 mi ENE 3.5 mph - N/A   Partly Cloudy
4:30 AM 59.0 °F 57.2 °F 94% 30.15 in 6.2 mi Variable 1.2 mph - N/A   Partly Cloudy
5:00 AM 60.8 °F 57.2 °F 88% 30.15 in 6.2 mi Calm Calm - N/A   Partly Cloudy
5:30 AM 59.0 °F 55.4 °F 88% 30.15 in 6.2 mi NNE 2.3 mph - N/A   Partly Cloudy
6:00 AM 59.0 °F 55.4 °F 88% 30.15 in 6.2 mi Variable 2.3 mph - N/A   Partly Cloudy
6:30 AM 59.0 °F 55.4 °F 88% 30.15 in 6.2 mi East 3.5 mph - N/A   Partly Cloudy
7:00 AM 59.0 °F 55.4 °F 88% 30.15 in 6.2 mi Variable 1.2 mph - N/A   Partly Cloudy
7:30 AM 59.0 °F 57.2 °F 94% 30.15 in 6.2 mi Calm Calm - N/A   Scattered Clouds
8:00 AM 59 °F 56 °F 88% 30.17 in 16 mi East 2.3 mph - -   Partly Cloudy
8:00 AM 59.0 °F 57.2 °F 94% 30.15 in 6.2 mi ENE 5.8 mph - N/A   Scattered Clouds
8:30 AM 59.0 °F 57.2 °F 94% 30.15 in 6.2 mi East 4.6 mph - N/A   Partly Cloudy
9:00 AM 62.6 °F 59.0 °F 88% 30.15 in 6.2 mi Variable 2.3 mph - N/A   Partly Cloudy
9:30 AM 66.2 °F 60.8 °F 83% 30.15 in 6.2 mi Variable 1.2 mph - N/A   Partly Cloudy
10:00 AM 69.8 °F 60.8 °F 73% 30.18 in 6.2 mi Variable 2.3 mph - N/A   Partly Cloudy
10:30 AM 71.6 °F 59.0 °F 64% 30.15 in 6.2 mi ENE 4.6 mph - N/A   Partly Cloudy
11:00 AM 73.4 °F 59.0 °F 61% 30.18 in 6.2 mi ENE 5.8 mph - N/A   Partly Cloudy
11:30 AM 75.2 °F 59.0 °F 57% 30.18 in 6.2 mi ENE 8.1 mph - N/A   Scattered Clouds
12:00 PM 73.4 °F 59.0 °F 61% 30.18 in 6.2 mi ENE 8.1 mph - N/A   Scattered Clouds
12:30 PM 73.4 °F 59.0 °F 61% 30.15 in 6.2 mi ENE 6.9 mph - N/A   Scattered Clouds
1:00 PM 73.4 °F 59.0 °F 61% 30.15 in 6.2 mi ENE 4.6 mph - N/A   Scattered Clouds
1:30 PM 75.2 °F 57.2 °F 53% 30.15 in 6.2 mi East 3.5 mph - N/A   Scattered Clouds
2:00 PM 74 °F 58 °F 48% 30.17 in 19 mi ENE 4.6 mph - -   Partly Cloudy
2:00 PM 73.4 °F 59.0 °F 61% 30.12 in 6.2 mi East 3.5 mph - N/A   Scattered Clouds
2:30 PM 73.4 °F 57.2 °F 57% 30.12 in 6.2 mi NE 4.6 mph - N/A   Scattered Clouds
3:00 PM 73.4 °F 59.0 °F 61% 30.12 in 6.2 mi NE 9.2 mph - N/A   Scattered Clouds
3:30 PM 71.6 °F 59.0 °F 64% 30.09 in 6.2 mi NE 11.5 mph - N/A   Scattered Clouds
4:00 PM 71.6 °F 59.0 °F 64% 30.09 in 6.2 mi NE 11.5 mph - N/A   Scattered Clouds
4:30 PM 73.4 °F 59.0 °F 61% 30.09 in 6.2 mi ENE 10.4 mph - N/A   Scattered Clouds
5:00 PM 73.4 °F 59.0 °F 61% 30.09 in 6.2 mi NE 6.9 mph - N/A   Scattered Clouds
5:30 PM 73.4 °F 59.0 °F 61% 30.09 in 6.2 mi ENE 8.1 mph - N/A   Scattered Clouds
6:00 PM 73.4 °F 59.0 °F 61% 30.09 in 6.2 mi NE 8.1 mph - N/A   Scattered Clouds
6:30 PM 71.6 °F 59.0 °F 64% 30.09 in 6.2 mi NE 6.9 mph - N/A   Scattered Clouds
7:00 PM 71.6 °F 59.0 °F 64% 30.06 in 6.2 mi NE 6.9 mph - N/A   Scattered Clouds
7:30 PM 69.8 °F 59.0 °F 68% 30.09 in 6.2 mi NE 6.9 mph - N/A   Scattered Clouds
8:00 PM 68 °F 58 °F 62% 30.10 in 12 mi ENE 5.8 mph - -   Mostly Cloudy
8:00 PM 68.0 °F 59.0 °F 73% 30.09 in 6.2 mi ENE 5.8 mph - N/A   Scattered Clouds
8:30 PM 68.0 °F 59.0 °F 73% 30.09 in 6.2 mi ENE 5.8 mph - N/A   Scattered Clouds
9:00 PM 68.0 °F 59.0 °F 73% 30.09 in 6.2 mi ENE 3.5 mph - N/A   Scattered Clouds
9:30 PM 68.0 °F 60.8 °F 78% 30.09 in 6.2 mi East 2.3 mph - N/A   Scattered Clouds
10:00 PM 68.0 °F 59.0 °F 73% 30.09 in 6.2 mi East 3.5 mph - N/A   Scattered Clouds
10:30 PM 64.4 °F 59.0 °F 83% 30.09 in 6.2 mi East 3.5 mph - N/A   Scattered Clouds
11:00 PM 64.4 °F 59.0 °F 83% 30.09 in 6.2 mi ENE 3.5 mph - N/A   Scattered Clouds
11:30 PM 62.6 °F 59.0 °F 88% 30.09 in 6.2 mi East 2.3 mph - N/A   Partly Cloudy